Location: Unspecified
(0.0000°N, 0.0000°E)
Time: 19:39:36
(UTC+00:00)

CZ-3C DEB - Pass Details

Date: 08 March 2026
Orbit: 404 x 27665 km, 19.3° (Epoch: 21 April)

Event Time Altitude Azimuth Distance (km) Brightness Sun altitude
Rises 18:52:14 0° 275° (W) 8,710 ? -10.3°
Reaches altitude 10° 18:56:27 10° 279° (W) 8,876 ? -11.3°
Maximum altitude 21:45:57 63° 332° (NNW) 27,432 ? -53.5°
Enters shadow 00:29:22 64° 314° (NW) 21,990 ? -83.2°
Exits shadow 01:40:37 83° 357° (N) 10,563 ? -67.1°
Drops below altitude 10° 02:13:39 10° 108° (ESE) 5,884 ? -59.0°
Sets 02:16:01 0° 108° (ESE) 6,170 ? -58.4°
